Location: Brachstadt
(48.6975°N, 10.6755°E)
Time: 08:32:05
(UTC+00:00)

MOS 1 Rocket - Pass Details

Date: 18 September 2020
Orbit: 614 x 831 km, 97.4° (Epoch: 24 October)

Event Time Altitude Azimuth Distance (km) Brightness Sun altitude
Rises 18:56:38 0° 9° (N) 3,044 6.8 -15.9°
Reaches altitude 10° 18:58:57 10° 6° (N) 2,094 6.0 -16.2°
Maximum altitude 19:03:24 57° 288° (WNW) 756 3.8 -16.9°
Drops below altitude 10° 19:07:38 10° 210° (SSW) 1,992 5.7 -17.6°
Sets 19:09:47 0° 206° (SSW) 2,881 6.5 -17.9°
